Location: Unspecified
(0.0000°N, 0.0000°E)
Time: 23:35:05
(UTC+00:00)

STARLINK-34058 - Visible Passes

Search period start: 20 June 2025 00:00
Search period end: 30 June 2025 00:00
Orbit: 443 x 444 km, 43.0° (Epoch: 20 June)

Date Brightness Start Highest point End Pass type
(mag) Time Alt. Az. Time Alt. Az. Time Alt. Az.
21 Jun 4.0 19:04:09 10° SSW 19:07:16 29° SE 19:07:21 29° SE visible
22 Jun 4.6 18:24:06 10° S 18:26:48 20° SE 18:29:28 10° E visible
22 Jun 5.7 20:02:01 10° W 20:04:42 20° NW 20:05:25 19° NNW visible
23 Jun 5.2 19:21:03 10° WSW 19:24:10 29° NW 19:27:17 10° NNE visible
24 Jun 6.7 05:24:41 10° NNE 05:25:56 11° NE 05:27:11 10° ENE visible
24 Jun 4.4 18:40:13 10° WSW 18:43:36 45° NW 18:46:58 10° NNE visible
27 Jun 3.9 04:58:28 10° NNW 05:01:56 55° NE 05:05:23 10° SE visible
28 Jun 4.7 04:19:32 22° N 04:21:11 35° NE 04:24:26 10° ESE visible
29 Jun 4.7 05:17:15 16° WSW 05:18:16 17° SW 05:20:43 10° S visible
